SCP
0 0 0 0 0 0 0 0 1 1 1 1 0 0 0 0 0 0 0 0 0 0 1 1 1 1 1 0 0 0 0 0 0 0 0 0 0 0 0 0 0 0 0
0 0 0 0 0 0 0 0 1 1 1 0 0 0 0 0 0 0 0 0 0 0 0 1 1 1 1 0 0 0 0 0 0 0 0 0 0 0 0 0 0 0 0
0 0 0 0 0 0 0 0 0 1 0 0 0 0 0 0 0 0 0 0 0 0 0 0 0 0 1 1 0 0 0 0 0 0 0 0 0 0 0 0 0 0 0
0 0 0 0 0 0 0 0 0 0 0 0 0 0 0 0 0 0 0 0 0 0 0 0 0 0 0 0 0 0 0 0 0 0 0 0 0 0 0 0 0 0 0
0 0 0 0 0 0 0 0 0 0 0 0 0 0 0 0 0 0 0 0 0 0 0 0 0 0 0 0 0 0 0 0 0 0 0 0 0 0 0 0 0 0 0
0 0 0 0 0 0 0 0 0 0 0 0 0 0 0 0 0 0 0 0 0 0 0 0 0 0 0 0 0 0 0 0 0 0 0 0 0 0 0 0 0 0 0
0 0 0 0 0 0 0 0 0 0 0 0 0 0 0 0 0 0 0 0 0 0 0 0 0 0 0 0 0 0 0 0 0 0 0 1 1 1 1 0 0 0 0
0 0 0 0 0 0 0 0 0 0 0 0 0 0 0 0 0 0 0 0 0 0 0 0 0 0 0 0 0 0 0 0 0 0 0 1 1 1 1 1 1 1 0
0 0 0 0 0 0 0 0 0 0 0 0 0 0 0 0 0 0 0 0 0 0 0 0 0 0 0 0 0 0 0 0 0 0 0 0 1 1 1 1 1 1 1
0 0 0 0 0 0 0 0 0 0 0 0 0 0 0 0 0 0 0 0 0 0 0 0 0 0 0 0 0 0 0 0 0 0 0 0 0 1 1 1 1 1 1
0 0 0 0 0 0 0 0 0 0 0 0 0 0 0 0 0 0 0 0 0 0 0 0 0 0 0 0 0 0 0 0 0 0 0 0 0 0 0 1 1 1 1
0 0 0 0 0 0 0 0 0 0 0 0 0 0 0 0 0 0 0 0 0 0 0 0 0 0 0 0 0 0 0 0 0 0 0 0 0 0 0 0 1 1 1
0 0 0 0 0 0 0 0 0 0 0 0 0 0 0 0 0 0 0 0 0 0 0 0 0 0 0 0 0 0 0 0 0 0 0 0 0 0 0 0 0 1 1
0 0 0 0 0 0 0 0 0 0 0 0 0 0 0 0 0 0 0 0 0 0 0 0 0 0 0 0 0 0 0 0 0 0 0 0 0 0 0 0 0 0 0
0 0 0 0 0 0 0 0 0 0 0 0 0 0 0 0 0 0 0 0 0 0 0 0 0 0 0 0 0 0 0 0 0 0 0 0 0 0 0 0 0 0 0
0 0 0 0 0 0 0 0 0 0 0 0 0 0 0 0 0 0 0 0 0 0 0 0 0 0 0 0 0 0 0 0 0 0 0 0 0 0 0 0 0 0 0
0 0 0 0 0 0 0 0 0 0 0 0 0 0 0 0 0 0 0 0 0 0 0 0 0 0 0 0 0 0 0 0 0 0 0 0 0 0 0 0 0 0 0
0 0 0 0 0 0 0 0 0 0 0 0 0 0 0 0 0 0 0 0 0 0 0 0 0 0 0 0 0 0 0 0 0 0 0 0 0 0 0 0 0 0 0
0 0 0 0 0 0 0 0 0 0 0 0 0 0 0 0 0 0 0 0 0 0 0 0 0 0 0 0 0 0 0 0 0 0 0 0 0 0 0 0 0 0 0
0 0 0 0 0 0 0 0 0 0 0 0 0 0 0 0 0 0 0 0 0 0 0 0 0 0 0 0 0 0 0 0 0 0 0 0 0 0 0 0 0 0 0
0 0 0 0 0 0 0 0 0 0 0 0 0 0 0 0 0 0 0 0 0 0 0 0 0 0 0 0 0 0 0 0 0 0 0 0 0 0 0 0 0 0 0
0 0 0 0 0 0 0 0 0 0 0 0 0 0 0 0 0 0 0 0 0 0 0 0 0 0 0 0 0 0 0 0 0 0 0 0 0 0 0 0 0 0 0
0 0 0 0 0 0 0 0 0 0 0 0 0 0 0 0 0 0 0 0 0 0 0 0 0 0 0 0 0 0 0 0 0 0 0 0 0 0 0 0 0 0 0
0 0 0 0 0 0 0 0 0 0 0 0 0 0 0 0 0 0 0 0 0 0 0 0 0 0 0 0 0 0 0 0 0 0 0 0 0 0 0 0 0 0 0
0 0 0 0 0 0 0 0 0 0 0 0 0 0 0 0 0 0 0 0 0 0 0 0 0 0 0 0 0 0 0 0 0 0 0 0 0 0 0 0 0 0 0
0 0 0 0 0 0 0 0 0 0 0 0 0 0 0 0 0 0 0 0 0 0 0 0 0 0 0 0 0 0 0 0 0 0 0 0 0 0 0 0 0 0 0
Wind_Speed
9 7 6 6 6 5 4 3 4 4 4 4 5 5 4 4 4 1 3 3 4 5 4 4 4 3 2 3 3 3 4 4 4 5 5 5 8 8 8 8 8 10 11
8 6 5 4 4 4 3 3 5 6 6 5 5 5 5 5 4 2 1 2 3 4 4 4 4 4 3 3 3 2 2 3 3 4 3 3 4 6 10 8 9 10 8
7 5 3 2 1 2 2 3 3 3 5 6 6 7 6 5 5 5 3 2 3 4 3 3 3 4 4 3 3 2 2 3 3 4 4 2 2 3 6 10 9 9 7
5 4 1 1 3 3 3 2 2 3 4 6 7 9 8 7 8 6 5 6 5 5 3 2 3 4 4 3 3 2 2 2 3 4 3 4 1 2 1 4 6 8 7
2 1 1 2 3 4 4 3 4 4 4 5 7 8 8 7 7 8 9 8 7 6 4 2 1 2 3 3 4 4 3 2 3 3 3 4 3 4 2 2 2 4 5
2 2 2 3 3 5 4 4 4 5 5 6 6 7 8 8 9 9 9 8 6 5 4 2 0 1 2 3 4 4 5 3 4 4 4 3 3 3 3 3 4 4 4
3 2 3 4 5 6 5 4 5 5 5 5 6 6 7 8 10 9 7 7 7 6 6 5 2 2 2 3 3 4 4 4 5 4 4 4 5 4 3 3 3 3 3
3 5 6 6 6 7 6 6 5 5 5 5 6 6 7 7 7 8 9 9 8 7 7 7 5 5 4 5 4 3 4 4 4 5 5 4 5 5 4 3 2 2 2
6 7 8 9 8 7 6 6 5 5 5 6 6 6 5 6 7 7 9 8 7 9 9 8 8 7 7 6 5 4 5 4 4 4 4 4 4 5 5 4 2 2 3
8 10 10 10 9 8 6 6 5 5 6 7 6 8 6 6 6 8 8 8 8 8 9 9 8 8 8 7 6 6 6 6 5 4 4 4 4 4 5 5 4 3 2
10 10 9 9 9 9 8 7 7 6 6 6 6 6 7 7 8 7 8 7 7 8 9 9 9 9 9 9 8 8 7 7 7 6 6 6 5 4 4 4 4 4 3
9 10 10 9 9 10 10 9 8 8 7 7 6 7 7 8 8 9 8 7 8 8 9 9 9 10 11 9 9 9 10 9 9 8 8 7 6 6 4 4 5 4 4
9 9 9 9 9 10 10 10 10 10 10 9 8 8 9 9 9 9 8 8 8 8 9 9 10 10 10 10 10 10 10 10 9 9 9 9 8 7 5 5 4 4 4
8 9 8 7 8 8 8 9 10 10 10 10 10 9 10 10 10 10 9 9 9 9 10 10 10 10 10 11 11 11 11 10 10 9 9 9 9 8 7 6 5 4 3
9 9 9 8 7 8 8 9 9 9 9 10 11 11 10 10 10 9 9 9 10 12 10 10 10 10 10 11 11 10 13 11 11 10 10 10 11 12 9 7 7 6 5
10 11 11 10 9 9 9 9 9 9 8 10 11 11 11 11 11 10 10 10 10 10 10 11 12 12 12 14 13 10 10 10 9 9 10 10 11 12 13 13 11 9 7
11 11 11 10 9 9 8 9 9 10 10 10 11 11 11 12 12 13 13 12 11 11 11 12 12 13 12 15 15 15 11 11 9 9 9 11 12 13 10 12 13 12 11
10 11 11 11 10 10 9 8 10 10 11 11 11 12 12 13 12 12 12 11 10 10 11 11 12 12 13 15 15 15 13 11 11 10 10 10 9 9 9 10 11 10 10
9 9 10 12 11 10 9 10 11 11 11 12 12 12 13 14 13 13 13 11 10 11 11 11 11 11 12 14 14 13 9 9 11 11 10 9 10 10 11 9 9 9 8
9 9 10 11 10 9 9 11 11 11 12 12 13 13 13 13 14 13 12 11 9 11 11 11 10 11 11 11 12 12 8 8 8 8 7 9 11 12 12 9 8 8 8
9 9 10 9 9 9 9 10 11 11 11 12 13 14 13 13 13 11 9 9 10 10 10 11 9 9 9 9 10 10 7 7 6 6 6 6 11 12 12 9 6 7 6
10 10 9 9 8 8 9 11 11 11 11 12 14 14 14 14 12 11 10 9 9 9 9 8 8 6 5 5 5 6 8 5 4 4 4 5 10 12 13 9 6 6 5
9 9 10 10 8 8 8 10 10 10 12 13 14 14 15 13 11 10 10 8 7 7 7 6 6 5 4 2 3 5 6 5 2 1 1 3 9 9 9 10 9 7 4
8 9 10 10 10 9 9 9 10 10 12 13 14 13 13 13 11 7 7 7 7 7 7 6 6 5 4 3 2 2 4 5 5 4 2 4 7 6 6 7 7 6 5
8 8 9 9 10 10 10 10 10 10 12 13 13 13 12 12 10 8 6 6 4 4 5 6 6 5 4 4 5 4 1 1 2 2 3 3 4 5 6 6 7 7 6
8 8 9 10 11 10 10 9 9 10 11 12 12 10 11 10 9 8 7 4 5 5 6 6 6 5 3 4 4 3 3 3 2 0 3 4 5 6 6 7 7 7 7
Wind_Direction
116 116 115 108 102 93 77 57 32 27 354 3 341 331 329 331 311 329 35 8 349 338 326 322 307 283 266 261 254 243 251 242 229 235 247 237 222 213 214 214 216 219 220
128 128 130 119 105 91 56 46 33 15 358 357 319 301 318 313 301 339 1 10 351 334 332 334 320 313 290 284 285 264 256 258 230 220 236 240 228 221 217 207 212 217 214
137 139 133 110 65 57 30 34 32 11 4 345 325 335 327 314 319 334 319 355 335 318 323 323 322 319 307 285 273 257 250 263 271 233 224 232 235 234 207 204 206 205 204
149 150 171 11 340 356 3 27 33 21 2 346 337 331 320 319 325 326 326 329 312 296 291 307 333 330 318 320 302 278 252 242 269 286 257 246 252 272 281 203 200 195 196
173 167 287 308 328 341 341 358 27 22 6 346 329 324 321 326 323 324 315 310 297 280 269 263 317 331 323 340 339 334 307 259 250 271 284 266 249 225 238 229 206 187 185
214 228 281 326 346 338 340 357 12 7 355 339 328 321 322 320 313 303 295 297 297 294 290 270 224 301 327 338 328 323 314 307 289 281 279 276 261 238 230 218 204 191 193
240 285 328 343 346 333 339 350 357 353 345 329 317 318 315 308 296 296 310 320 317 314 316 322 295 277 277 288 291 294 295 302 301 290 282 281 276 279 261 235 222 198 182
356 352 346 351 345 343 350 352 353 339 329 320 314 310 298 300 311 326 327 312 300 298 305 311 306 287 265 261 261 273 275 271 278 285 296 298 294 298 290 268 242 220 191
358 350 354 353 351 354 354 346 341 334 328 320 308 292 303 322 318 312 302 302 308 309 314 320 309 299 286 264 250 249 254 261 257 265 276 287 293 303 300 293 272 225 216
355 357 353 346 349 345 343 343 343 337 326 317 316 321 327 311 304 305 302 299 298 298 299 295 294 291 286 276 255 247 242 239 240 236 244 256 276 286 295 301 291 265 238
355 349 344 346 344 339 338 341 338 330 322 322 323 317 310 310 305 298 296 301 305 306 302 299 295 291 285 277 266 255 246 238 237 237 233 230 237 261 276 288 290 276 254
349 343 341 343 340 336 335 332 331 324 325 327 319 313 312 309 306 305 303 299 295 293 294 292 290 287 284 279 273 263 255 241 233 229 228 228 226 228 243 259 273 274 261
347 343 343 343 336 335 331 327 325 324 325 321 319 317 313 309 304 301 298 296 293 291 290 287 285 283 282 280 277 270 261 252 241 231 224 222 218 220 220 229 247 265 268
351 345 343 338 334 328 326 324 321 320 318 320 317 312 307 304 301 299 298 296 294 292 287 285 283 280 278 277 275 272 266 259 252 240 229 222 217 215 212 218 222 232 248
344 342 337 331 329 326 324 319 318 317 319 315 311 308 306 303 298 296 295 293 291 291 289 289 286 282 277 269 263 260 265 258 251 246 236 228 221 214 209 212 208 210 215
340 335 331 331 327 324 320 321 319 319 318 314 310 308 305 302 300 298 295 292 290 290 289 286 284 280 277 279 280 275 273 271 257 250 243 236 230 220 209 207 197 195 204
335 334 334 329 323 318 321 321 319 319 317 313 310 309 308 306 305 305 302 298 296 294 289 284 280 276 271 269 267 264 263 264 257 249 244 241 232 212 203 202 199 201 204
338 336 329 324 321 323 323 321 319 317 314 312 312 313 311 308 307 303 299 297 296 292 288 284 282 277 272 266 257 253 254 256 251 243 238 233 241 227 206 200 201 205 203
337 328 324 322 322 323 326 324 318 316 314 315 317 316 313 308 305 301 300 299 296 293 288 286 281 276 272 267 257 243 250 247 247 241 234 227 227 224 210 204 200 201 201
330 326 325 322 322 330 330 322 317 317 319 321 318 313 309 305 302 299 298 298 297 294 293 290 286 282 275 269 255 234 240 242 243 240 234 231 229 214 201 203 200 203 199
329 330 329 324 325 328 327 320 318 320 324 320 314 309 307 304 298 296 297 299 300 299 298 295 291 285 277 275 254 230 236 236 233 235 226 224 212 202 199 206 206 205 196
332 334 327 324 325 330 327 321 321 325 323 318 313 311 309 307 305 303 301 301 302 303 303 304 303 297 289 278 260 228 228 247 238 238 234 215 195 194 197 202 196 183 185
333 329 327 325 327 331 329 322 325 326 323 318 314 312 310 305 302 302 305 307 306 308 310 314 314 315 313 298 236 215 213 220 236 277 284 189 181 184 197 208 190 182 196
329 330 327 325 327 331 331 327 327 327 322 318 315 312 310 307 309 308 308 309 313 318 320 323 326 327 333 345 340 212 197 199 210 219 198 165 170 192 213 192 194 205 212
327 327 324 324 326 330 328 330 332 329 322 317 315 314 312 309 308 307 304 302 312 312 301 313 322 327 333 355 356 355 344 197 173 197 188 193 186 199 211 203 195 202 209
326 325 326 325 326 326 328 333 335 330 320 315 316 314 311 310 310 311 311 292 280 257 248 257 277 294 303 324 334 349 4 19 24 248 219 217 222 218 216 211 203 203 207